[[{"header":{"parameterUnit":"m.s-1","parameterCategory":1,"la1":30.2991,"la2":30.254,"lo1":-89.0895,"lo2":-89.0444,"dy":0.0017,"dx":0.0017,"nx":28,"ny":28,"refTime":"2025-05-22T09:00:00:Z","depth":0,"parameterNumber":2,"parameterNumberName":"U-component_of_WINDS"},"data":[0,0,0,0,0,0,0,0,0,0,0,0,0,0,0,0,0,0,0,0,0,0,0,0,0,0,0,0,0,0,0,0,0,0,0,0,0,0,0,0,0,0,0,0,0,0,0,0,0,0,0,0,0,0,0,0,0,0,-1.3458,-1.3457,0,-1.3428,-1.3427,-1.3427,-1.3375,-1.3374,-1.3373,-1.3373,-1.3342,-1.3342,-1.3342,0,0,0,0,0,0,0,0,0,0,0,0,0,-1.3471,-1.3471,-1.3458,-1.3457,-1.3457,-1.3428,-1.3427,-1.3427,-1.3376,-1.3374,-1.3373,-1.3372,-1.3342,-1.3342,-1.3342,0,0,0,0,0,0,0,0,0,0,0,0,0,-1.3456,-1.3471,-1.3458,-1.3428,-1.3425,-1.3428,-1.3427,-1.3427,-1.3376,-1.3374,-1.3373,-1.3372,-1.3342,-1.3342,-1.3342,-1.3372,0,0,-1.3342,-1.3342,0,0,0,0,0,0,0,0,-1.3457,-1.3455,-1.3433,-1.343,-1.3427,-1.3404,-1.3421,-1.3408,-1.3376,-1.3394,-1.3373,-1.3371,-1.3364,-1.3362,-1.3359,-1.337,-1.3369,-1.3342,-1.3342,-1.3342,-1.3342,0,0,0,0,0,0,0,-1.3458,-1.3456,-1.3446,-1.3432,-1.3429,-1.3416,-1.3412,-1.3418,-1.3388,-1.3393,-1.3389,-1.3386,-1.3362,-1.3359,-1.3358,-1.3369,-1.3342,-1.3342,-1.3342,-1.3343,-1.3403,-1.3405,0,0,0,0,0,0,-1.3463,-1.3457,-1.3447,-1.3445,-1.3438,-1.3417,-1.3413,-1.3413,-1.3387,-1.3382,-1.3387,-1.3384,-1.336,-1.3358,-1.3357,-1.339,-1.3342,-1.3343,-1.3343,-1.3402,-1.3404,-1.3405,0,0,0,0,0,0,-1.3464,-1.3463,-1.3448,-1.345,-1.3447,-1.3418,-1.3419,-1.3413,-1.341,-1.3383,-1.3378,-1.3391,-1.3359,-1.3357,-1.3369,-1.3389,-1.3343,-1.3343,-1.34,-1.3402,-1.3404,-1.3458,0,0,0,0,0,0,-1.3464,-1.3463,-1.3474,-1.3451,-1.3447,-1.346,-1.342,-1.3413,-1.3411,-1.3406,-1.3385,-1.338,-1.3357,-1.3369,-1.3369,-1.3388,-1.3343,-1.3398,-1.3401,-1.3404,-1.3454,-1.3461,-1.3468,0,0,0,0,0,-1.3465,-1.349,-1.3475,-1.3474,-1.346,-1.3461,-1.3459,-1.3433,-1.3413,-1.3423,-1.3406,-1.3381,-1.3387,-1.337,-1.337,-1.3389,-1.3397,-1.34,-1.3403,-1.3451,-1.346,-1.3468,0,0,0,0,0,0,-1.3516,-1.3486,-1.3469,-1.3487,-1.3477,-1.3453,-1.3465,-1.3443,-1.3439,-1.3434,-1.3402,-1.3398,-1.3414,-1.3403,-1.3385,-1.3417,-1.3388,-1.3391,-1.3424,-1.3432,-1.3439,-1.3441,-1.3343,0,0,0,0,0,-1.3529,-1.3533,-1.3507,-1.3525,-1.3521,-1.3494,-1.3494,-1.3474,-1.3463,-1.3458,-1.3441,-1.3431,-1.3431,-1.3431,-1.3429,-1.3452,-1.3447,-1.3466,-1.3473,-1.3479,-1.3482,-1.3494,-1.3502,-1.3417,-1.3417,-1.3416,0,0,-1.3557,-1.3541,-1.3545,-1.3535,-1.3525,-1.3529,-1.3491,-1.3497,-1.35,-1.3459,-1.3469,-1.3457,-1.3443,-1.3461,-1.3468,-1.3452,-1.3504,-1.3483,-1.3488,-1.3488,-1.3498,-1.3506,-1.3514,-1.3419,-1.3418,-1.3418,0,0,-1.3609,-1.3598,-1.3612,-1.3603,-1.3588,-1.3571,-1.3574,-1.3553,-1.3544,-1.3553,-1.3523,-1.3526,-1.3526,-1.3518,-1.3513,-1.3564,-1.3541,-1.3565,-1.3601,-1.3613,-1.362,-1.3625,-1.3643,-1.365,-1.3568,-1.3568,-1.3568,0,-1.3645,-1.365,-1.3622,-1.363,-1.3627,-1.3591,-1.3605,-1.3598,-1.3584,-1.3582,-1.3565,-1.3565,-1.3553,-1.3569,-1.3581,-1.3579,-1.3582,-1.3566,-1.3621,-1.3626,-1.3631,-1.3648,-1.3655,-1.3571,-1.3571,-1.3571,-1.357,0,-1.3696,-1.37,-1.3713,-1.37,-1.3699,-1.371,-1.3684,-1.3686,-1.3667,-1.3651,-1.3662,-1.3647,-1.3642,-1.3644,-1.3626,-1.3658,-1.3648,-1.3627,-1.3596,-1.3643,-1.3658,-1.3665,-1.3575,-1.3574,-1.3574,-1.3573,0,0,-1.3778,-1.375,-1.3756,-1.375,-1.3732,-1.3734,-1.3745,-1.3739,-1.3742,-1.3734,-1.3741,-1.3743,-1.3723,-1.3718,-1.3699,-1.3709,-1.3751,-1.3686,-1.3685,-1.3699,-1.3785,-1.3801,-1.3809,-1.3736,-1.3737,-1.3738,-1.3786,0,-1.3826,-1.3842,-1.3817,-1.3838,-1.3842,-1.3808,-1.3817,-1.3807,-1.3793,-1.3794,-1.3779,-1.378,-1.3754,-1.3751,-1.376,-1.3744,-1.3768,-1.374,-1.3742,-1.3743,-1.3746,-1.3817,-1.3834,-1.3881,-1.3792,-1.3793,-1.3794,0,-1.3884,-1.3879,-1.3901,-1.3882,-1.3882,-1.3891,-1.3885,-1.3886,-1.3875,-1.3864,-1.3859,-1.3837,-1.3846,-1.3817,-1.3829,-1.3811,-1.381,-1.3803,-1.3804,-1.3803,-1.3771,-1.3818,-1.3895,-1.3902,-1.3803,-1.3802,-1.3802,0,-1.3942,-1.3941,-1.3953,-1.3949,-1.3928,-1.3935,-1.3926,-1.3913,-1.3912,-1.3907,-1.3905,-1.3902,-1.3899,-1.3897,-1.3874,-1.3855,-1.3889,-1.3858,-1.3881,-1.3881,-1.3888,-1.3888,-1.3967,-1.3889,-1.3889,-1.3889,-1.3889,0,-1.3998,-1.4013,-1.3979,-1.3987,-1.4002,-1.3975,-1.3991,-1.3979,-1.3968,-1.3973,-1.3944,-1.395,-1.3919,-1.3922,-1.3904,-1.3917,-1.3916,-1.3908,-1.3903,-1.391,-1.3911,-1.3909,-1.3905,-1.3891,-1.3891,-1.389,-1.389,0,-1.4065,-1.4043,-1.4055,-1.4034,-1.4029,-1.4041,-1.4023,-1.403,-1.4014,-1.4021,-1.4022,-1.3997,-1.3999,-1.3976,-1.3973,-1.3961,-1.3982,-1.3971,-1.3986,-1.3982,-1.4006,-1.4004,-1.4085,-1.4094,-1.4012,-1.4012,-1.4013,0,-1.4102,-1.4113,-1.4093,-1.4094,-1.4087,-1.409,-1.4088,-1.4062,-1.4062,-1.405,-1.4058,-1.4058,-1.4055,-1.4059,-1.4042,-1.4039,-1.4028,-1.4057,-1.4028,-1.4035,-1.4029,-1.4028,-1.4029,-1.4063,-1.4064,-1.4065,-1.4066,0,-1.417,-1.4159,-1.4158,-1.4154,-1.4154,-1.4149,-1.4143,-1.4146,-1.4117,-1.4119,-1.412,-1.4118,-1.4116,-1.4115,-1.411,-1.4101,-1.4079,-1.4075,-1.408,-1.4087,-1.4095,-1.4091,-1.4002,-1.4073,-1.4072,-1.4072,-1.4071,-1.4071,-1.4223,-1.4231,-1.4218,-1.4219,-1.4211,-1.4206,-1.4212,-1.4197,-1.4198,-1.4193,-1.4178,-1.4182,-1.4171,-1.4161,-1.4155,-1.4158,-1.4144,-1.4151,-1.4153,-1.4155,-1.4159,-1.4096,-1.4157,-1.4157,-1.4156,-1.4156,-1.4156,0,-1.429,-1.428,-1.4281,-1.4273,-1.4273,-1.4253,-1.4245,-1.4247,-1.4251,-1.4242,-1.4241,-1.4243,-1.4243,-1.4226,-1.4223,-1.4229,-1.4219,-1.4229,-1.4229,-1.4227,-1.4172,-1.4168,-1.4238,-1.4238,-1.4238,-1.4238,-1.4238,-1.4238,-1.4324,-1.4336,-1.4324,-1.4333,-1.4323,-1.4327,-1.4324,-1.4319,-1.4313,-1.4316,-1.4316,-1.4305,-1.4293,-1.429,-1.4289,-1.4284,-1.4284,-1.4298,-1.429,-1.4239,-1.4231,-1.4223,-1.4219,-1.4299,-1.4299,-1.4345,-1.4345,-1.4345]},{"header":{"parameterUnit":"m.s-1","parameterCategory":1,"la1":30.2991,"la2":30.254,"lo1":-89.0895,"lo2":-89.0444,"dy":0.0017,"dx":0.0017,"nx":28,"ny":28,"refTime":"2025-05-22T09:00:00:Z","depth":0,"parameterNumber":3,"parameterNumberName":"V-component_of_WINDS"},"data":[0,0,0,0,0,0,0,0,0,0,0,0,0,0,0,0,0,0,0,0,0,0,0,0,0,0,0,0,0,0,0,0,0,0,0,0,0,0,0,0,0,0,0,0,0,0,0,0,0,0,0,0,0,0,0,0,0,0,2.5985,2.5985,0,2.605,2.6051,2.6052,2.6071,2.607,2.607,2.6069,2.6134,2.6136,2.6138,0,0,0,0,0,0,0,0,0,0,0,0,0,2.5874,2.5876,2.5985,2.5985,2.5986,2.605,2.6051,2.6052,2.6071,2.607,2.607,2.6069,2.6133,2.6136,2.6138,0,0,0,0,0,0,0,0,0,0,0,0,0,2.5929,2.5876,2.5984,2.6003,2.6006,2.605,2.6051,2.6052,2.6071,2.607,2.607,2.6069,2.6133,2.6136,2.6139,2.6168,0,0,2.6148,2.6149,0,0,0,0,0,0,0,0,2.5926,2.5933,2.6,2.6002,2.6005,2.6052,2.6036,2.6091,2.6071,2.6046,2.6069,2.6069,2.6107,2.6112,2.6126,2.6171,2.6174,2.6148,2.615,2.6152,2.6152,0,0,0,0,0,0,0,2.5922,2.593,2.6011,2.6001,2.6004,2.6008,2.6015,2.6046,2.6079,2.6048,2.605,2.6057,2.6108,2.6123,2.6127,2.6175,2.6148,2.6151,2.6153,2.6154,2.625,2.6251,0,0,0,0,0,0,2.5915,2.5927,2.6008,2.6013,2.5963,2.601,2.6019,2.6037,2.6078,2.6084,2.6058,2.6058,2.6118,2.6124,2.613,2.6168,2.6152,2.6154,2.6156,2.6249,2.625,2.6251,0,0,0,0,0,0,2.5913,2.5922,2.6006,2.597,2.5981,2.6013,2.6034,2.6039,2.6053,2.6086,2.6091,2.6066,2.6117,2.6125,2.6159,2.617,2.6156,2.6159,2.6248,2.625,2.625,2.6244,0,0,0,0,0,0,2.5909,2.5921,2.5933,2.597,2.5983,2.6035,2.6034,2.604,2.6059,2.606,2.6095,2.6101,2.6118,2.6154,2.6162,2.6174,2.6161,2.6248,2.6249,2.625,2.6243,2.6245,2.6246,0,0,0,0,0,2.5905,2.5928,2.5933,2.5943,2.5999,2.6035,2.6042,2.6062,2.6059,2.6072,2.6093,2.61,2.6168,2.6158,2.6167,2.618,2.6247,2.6249,2.625,2.6243,2.6244,2.6246,0,0,0,0,0,0,2.5889,2.5933,2.594,2.5975,2.6001,2.6038,2.6054,2.6063,2.609,2.609,2.6112,2.612,2.6153,2.617,2.6157,2.6211,2.6208,2.6211,2.6199,2.6201,2.6202,2.6197,2.6164,0,0,0,0,0,2.589,2.5917,2.5953,2.5981,2.5994,2.6022,2.6038,2.6052,2.6079,2.609,2.6114,2.614,2.6168,2.6185,2.6212,2.6246,2.6254,2.626,2.6261,2.6262,2.6264,2.6285,2.6288,2.6256,2.6256,2.6256,0,0,2.5892,2.5919,2.5934,2.5978,2.6,2.6027,2.6031,2.6059,2.6079,2.6094,2.6128,2.6146,2.6177,2.6212,2.6228,2.6227,2.6275,2.6264,2.6264,2.6266,2.6286,2.6289,2.6292,2.6257,2.6257,2.6257,0,0,2.5908,2.5931,2.5958,2.598,2.6014,2.6033,2.6039,2.6075,2.6088,2.6123,2.6135,2.6159,2.6206,2.6228,2.6245,2.6272,2.6279,2.628,2.6286,2.6306,2.6308,2.631,2.6321,2.6324,2.6282,2.6282,2.6282,0,2.5906,2.5947,2.5969,2.5998,2.6017,2.6034,2.606,2.6081,2.6121,2.6134,2.6132,2.6193,2.6214,2.6254,2.6261,2.6274,2.6282,2.6276,2.6306,2.6309,2.6311,2.6321,2.6325,2.6282,2.6282,2.6282,2.6282,0,2.5943,2.5971,2.5988,2.6029,2.605,2.6077,2.6103,2.6122,2.6134,2.6152,2.6188,2.6215,2.6248,2.6259,2.627,2.6301,2.6299,2.6302,2.6298,2.6314,2.6323,2.6327,2.6282,2.6282,2.6282,2.6282,0,0,2.595,2.6003,2.6009,2.6028,2.6068,2.609,2.6118,2.6152,2.6168,2.6196,2.622,2.626,2.6263,2.6283,2.6297,2.6314,2.6334,2.6314,2.6315,2.6317,2.6371,2.6369,2.6373,2.634,2.634,2.6341,2.6368,0,2.5972,2.6023,2.6045,2.6086,2.6114,2.6131,2.6155,2.6182,2.62,2.6226,2.6246,2.6275,2.6276,2.6288,2.6306,2.6328,2.6345,2.6326,2.6362,2.6363,2.6354,2.6378,2.6376,2.64,2.6372,2.6373,2.6373,0,2.6004,2.6033,2.6078,2.6115,2.6127,2.6149,2.6183,2.6207,2.6238,2.625,2.6273,2.6287,2.6317,2.6312,2.6354,2.6341,2.6357,2.637,2.6371,2.6375,2.6369,2.6382,2.6408,2.6412,2.6379,2.6379,2.6378,0,2.6005,2.6056,2.6089,2.6105,2.6149,2.6165,2.6184,2.6214,2.6234,2.6263,2.6276,2.6307,2.6325,2.6349,2.6371,2.6365,2.6411,2.6408,2.6422,2.6422,2.6431,2.643,2.6459,2.6441,2.6441,2.6441,2.6441,0,2.6027,2.6054,2.6091,2.6111,2.6142,2.6167,2.6196,2.6216,2.6244,2.6268,2.6285,2.6307,2.6335,2.6361,2.6378,2.6411,2.6419,2.6429,2.6434,2.6428,2.6427,2.6439,2.6438,2.6442,2.6442,2.6441,2.6441,0,2.6033,2.6059,2.6097,2.6137,2.6147,2.6168,2.6202,2.6223,2.6243,2.6274,2.6283,2.6314,2.6346,2.637,2.6411,2.6423,2.6458,2.6462,2.6448,2.645,2.6463,2.6462,2.6501,2.6508,2.6485,2.6485,2.6485,0,2.6045,2.6067,2.6109,2.6128,2.6147,2.6176,2.6196,2.6222,2.6242,2.628,2.6296,2.633,2.6358,2.6408,2.6434,2.6466,2.6472,2.6483,2.6476,2.6471,2.6472,2.6471,2.6473,2.6484,2.6484,2.6484,2.6484,0,2.6065,2.6077,2.6106,2.6141,2.6165,2.6193,2.6221,2.6235,2.6265,2.6287,2.6321,2.6343,2.6386,2.6419,2.6454,2.6473,2.6484,2.6487,2.6492,2.6486,2.6477,2.6483,2.645,2.6485,2.6485,2.6485,2.6485,2.6485,2.6075,2.6095,2.6128,2.6161,2.6185,2.6211,2.6233,2.6257,2.6285,2.6323,2.6336,2.6371,2.6403,2.6451,2.6471,2.6498,2.6498,2.6505,2.6507,2.6509,2.6509,2.6473,2.6505,2.6505,2.6505,2.6505,2.6505,0,2.6095,2.6118,2.6148,2.6187,2.6213,2.6222,2.6254,2.6275,2.6305,2.6334,2.6362,2.6402,2.6434,2.6464,2.6498,2.6514,2.652,2.6522,2.6521,2.6526,2.6506,2.6499,2.6517,2.6517,2.6517,2.6517,2.6517,2.6517,2.6109,2.6144,2.616,2.6207,2.623,2.6265,2.6283,2.6307,2.6331,2.6374,2.6402,2.6421,2.645,2.6487,2.6518,2.6526,2.6537,2.6539,2.6547,2.6529,2.6527,2.6525,2.6518,2.6541,2.6541,2.6565,2.6565,2.6565]}]]